This is the latest recevied weather packets stored in our database for station/object KJ4UBX-13. If no packets are shown the sender has not sent any weather packets the latest 10 day(s).
| Time | Temp. | Humidity | Pressure | Rain* | Wind** | Luminosity | Snow |
|---|---|---|---|---|---|---|---|
| 1787850148 | 27.22° C | 70% | 1015.3 hPa | - | - | - | - |
| 1787849567 | 27.22° C | 69% | 1015.4 hPa | - | - | - | - |
| 1787848985 | 27.22° C | 67% | 1015.4 hPa | - | - | - | - |
| 1787848405 | 27.22° C | 65% | 1015.4 hPa | - | - | - | - |
| 1787847825 | 27.78° C | 69% | 1015.6 hPa | - | - | - | - |
| 1787847243 | 27.78° C | 70% | 1015.8 hPa | - | - | - | - |
| 1787846662 | 27.78° C | 69% | 1015.7 hPa | - | - | - | - |
| 1787846081 | 27.22° C | 70% | 1015.9 hPa | - | - | - | - |
| 1787845500 | 27.22° C | 70% | 1015.9 hPa | - | - | - | - |
| 1787844919 | 27.22° C | 69% | 1016.1 hPa | - | - | - | - |
| 1787844339 | 27.22° C | 69% | 1016.2 hPa | - | - | - | - |
| 1787843757 | 27.78° C | 69% | 1016.2 hPa | - | - | - | - |
| 1787843177 | 28.33° C | 67% | 1016.1 hPa | - | - | - | - |
| 1787842602 | 31.11° C | 60% | 1016 hPa | - | - | - | - |
| 1787842453 | 30.56° C | 65% | 1016 hPa | - | - | - | - |
| 1787842443 | 29.44° C | 64% | 1016 hPa | - | - | - | - |
| 1787842048 | 26.67° C | 72% | 1016 hPa | - | - | - | - |
| 1787841539 | 26.67° C | 71% | 1016 hPa | - | - | - | - |
| 1787840958 | 26.67° C | 71% | 1015.9 hPa | - | - | - | - |
| 1787840377 | 26.67° C | 71% | 1015.9 hPa | - | - | - | - |
| 1787839796 | 26.11° C | 71% | 1015.9 hPa | - | - | - | - |
| 1787839215 | 26.11° C | 69% | 1016 hPa | - | - | - | - |
| 1787838634 | 26.11° C | 69% | 1016 hPa | - | - | - | - |
| 1787838053 | 26.11° C | 71% | 1016 hPa | - | - | - | - |
| 1787837473 | 26.11° C | 71% | 1016.1 hPa | - | - | - | - |
* Rain since midnight (hover to see other rain measurements)
** Current wind speed in m/s (hover to see current wind gust speed)